FW2442 Weather Reports


time (UTC)temp
F
wind
direction
speed
knots
gust
knots
rain 1hr
in
rain 24hr
in
rain mn
in
humidity
%
barometer
mb
20260506015601 51 0.0 0.0 0.00 0.00 0.00 74 1013.9
20260506014521 51 110 0.9 1.7 0.00 0.00 0.00 74 1014.0
20260506013521 51 131 0.0 0.9 0.00 0.00 0.00 75 1014.0
20260506012523 51 0.0 0.0 0.00 0.00 0.00 76 1014.0
20260506011525 52 0.0 0.0 0.00 0.00 0.00 75 1014.0
20260506010521 53 0.0 0.0 0.00 0.00 0.00 74 1013.9
20260506005521 53 0.0 0.0 0.00 0.00 0.00 74 1013.9
20260506004601 53 0.0 0.0 0.00 0.00 0.00 74 1013.9
20260506003521 53 131 0.0 0.9 0.00 0.00 0.00 74 1013.7
20260506002525 54 122 0.0 0.9 0.00 0.00 0.00 74 1013.6
20260506001522 54 0.0 0.0 0.00 0.00 0.00 74 1013.7
20260506000522 54 125 0.0 0.9 0.00 0.00 0.00 74 1013.6
20260505235521 54 0.0 0.0 0.00 0.00 0.00 73 1013.6
20260505234520 55 0.0 0.0 0.00 0.00 0.00 72 1013.5
20260505233519 55 0.0 0.0 0.00 0.00 0.00 72 1013.5
20260505232559 55 135 0.0 0.9 0.00 0.00 0.00 71 1013.4
20260505231600 56 135 0.0 0.9 0.00 0.00 0.00 70 1013.5
20260505230540 56 105 0.0 1.7 0.00 0.00 0.00 69 1013.5
20260505225520 57 132 0.0 1.7 0.00 0.00 0.00 68 1013.5
20260505224518 57 115 0.9 1.7 0.00 0.00 0.00 68 1013.5
20260505223517 57 108 0.0 0.9 0.00 0.00 0.00 67 1013.3
20260505222517 58 104 0.9 2.6 0.00 0.00 0.00 66 1013.4
20260505221516 59 133 0.0 0.9 0.00 0.00 0.00 64 1013.4
20260505220536 60 0.0 0.0 0.00 0.00 0.00 62 1013.4
20260505215520 61 0.0 0.0 0.00 0.00 0.00 59 1013.4
20260505214520 62 135 0.9 2.6 0.00 0.00 0.00 58 1013.3
20260505213521 62 154 1.7 3.5 0.00 0.00 0.00 57 1013.3
20260505212520 63 156 1.7 4.3 0.00 0.00 0.00 56 1013.2
20260505211529 64 154 0.9 1.7 0.00 0.00 0.00 54 1013.2
20260505210523 64 172 1.7 3.5 0.00 0.00 0.00 53 1013.3
20260505205520 64 150 0.9 3.5 0.00 0.00 0.00 53 1013.3
20260505204520 65 158 1.7 4.3 0.00 0.00 0.00 52 1013.2
20260505203520 65 172 1.7 6.1 0.00 0.00 0.00 52 1013.2
20260505202520 65 154 1.7 4.3 0.00 0.00 0.00 51 1013.3
20260505201521 65 156 1.7 3.5 0.00 0.00 0.00 51 1013.3
20260505200520 65 156 1.7 5.2 0.00 0.00 0.00 51 1013.3
20260505195540 65 173 1.7 2.6 0.00 0.00 0.00 52 1013.3
20260505194520 66 176 1.7 5.2 0.00 0.00 0.00 52 1013.1
20260505193521 66 197 2.6 5.2 0.00 0.00 0.00 52 1012.9
20260505192520 66 175 1.7 3.5 0.00 0.00 0.00 51 1012.9
20260505191521 67 162 2.6 5.2 0.00 0.00 0.00 50 1012.8
20260505190521 67 172 1.7 5.2 0.00 0.00 0.00 50 1012.9
20260505185520 67 166 1.7 2.6 0.00 0.00 0.00 50 1012.8
20260505184521 68 208 1.7 3.5 0.00 0.00 0.00 48 1012.8
20260505183520 70 180 2.6 4.3 0.00 0.00 0.00 46 1012.6
20260505182522 70 162 1.7 3.5 0.00 0.00 0.00 45 1012.5
20260505181541 71 141 1.7 4.3 0.00 0.00 0.00 43 1012.4
20260505180521 70 174 1.7 5.2 0.00 0.00 0.00 41 1012.0
20260505175519 71 0.0 0.0 0.00 0.00 0.00 39 1012.2
20260505174520 72 0.0 0.0 0.00 0.00 0.00 38 1012.0
20260505173521 73 117 0.0 1.7 0.00 0.00 0.00 37 1012.1
20260505172521 74 0.0 0.0 0.00 0.00 0.00 36 1012.0
20260505171541 75 0.0 0.0 0.00 0.00 0.00 35 1011.9
20260505170520 76 107 0.9 1.7 0.00 0.00 0.00 35 1011.9
20260505165521 77 109 0.9 0.9 0.00 0.00 0.00 34 1012.0
20260505164522 78 126 0.9 0.9 0.00 0.00 0.00 34 1011.9
20260505163542 78 115 0.9 0.9 0.00 0.00 0.00 34 1011.9
20260505162520 78 107 0.9 1.7 0.00 0.00 0.00 33 1011.9
20260505161541 78 108 0.9 0.9 0.00 0.00 0.00 32 1011.9
20260505160521 79 112 0.9 0.9 0.00 0.00 0.00 32 1011.9
20260505152521 81 125 0.9 1.7 0.00 0.00 0.00 28 1012.0
20260505151519 81 122 1.7 3.5 0.00 0.00 0.00 28 1012.1
20260505150520 82 117 0.9 2.6 0.00 0.00 0.00 28 1012.1
20260505140601 83 230 1.7 3.5 0.00 0.00 0.00 30 1012.5
20260505124521 82 50 0.9 2.6 0.00 0.00 0.00 31 1013.1
20260505123520 81 105 0.9 3.5 0.00 0.00 0.00 31 1013.2
20260505122520 82 104 0.9 2.6 0.00 0.00 0.00 31 1013.3
20260505121520 82 115 0.9 1.7 0.00 0.00 0.00 31 1013.4
20260505120521 82 136 0.9 3.5 0.00 0.00 0.00 30 1013.4
20260505115521 81 53 0.9 1.7 0.00 0.00 0.00 31 1013.5
20260505114522 82 69 0.9 2.6 0.00 0.00 0.00 31 1013.6
20260505113522 82 118 0.9 2.6 0.00 0.00 0.00 33 1013.7
20260505112520 80 91 0.9 1.7 0.00 0.00 0.00 33 1013.8
20260505111522 81 113 0.9 2.6 0.00 0.00 0.00 32 1013.9
20260505110520 82 184 0.9 1.7 0.00 0.00 0.00 33 1013.9
20260505101521 79 98 0.9 0.9 0.00 0.00 0.00 33 1014.4
20260505100521 78 156 1.7 3.5 0.00 0.00 0.00 34 1014.6
20260505095520 78 231 0.9 2.6 0.00 0.00 0.00 36 1014.7
20260505094521 78 191 2.6 7.0 0.00 0.00 0.00 36 1014.8
20260505093520 78 121 0.9 2.6 0.00 0.00 0.00 36 1014.9
20260505092522 78 150 0.9 2.6 0.00 0.00 0.00 38 1015.0
20260505091521 77 108 0.9 1.7 0.00 0.00 0.00 39 1015.0
20260505090521 77 165 0.9 1.7 0.00 0.00 0.00 40 1015.1
20260505085521 76 119 0.9 2.6 0.00 0.00 0.00 42 1015.2
20260505084520 75 140 0.9 1.7 0.00 0.00 0.00 44 1015.3
20260505083519 75 149 1.7 4.3 0.00 0.00 0.00 42 1015.4
20260505082520 74 203 1.7 4.3 0.00 0.00 0.00 45 1015.5
20260505081519 73 189 0.9 2.6 0.00 0.00 0.00 45 1015.5
20260505080519 73 130 0.9 2.6 0.00 0.00 0.00 47 1015.5
20260505075519 72 143 0.9 1.7 0.00 0.00 0.00 47 1015.6
20260505074518 71 172 0.9 1.7 0.00 0.00 0.00 48 1015.7
20260505073517 71 236 0.0 0.9 0.00 0.00 0.00 49 1015.7
20260505072537 70 190 0.9 1.7 0.00 0.00 0.00 49 1015.7
20260505071517 69 228 0.9 1.7 0.00 0.00 0.00 49 1015.8
20260505070516 69 174 0.0 1.7 0.00 0.00 0.00 49 1015.8
20260505065536 69 0.0 0.0 0.00 0.00 0.00 48 1015.7
20260505064521 68 0.0 0.0 0.00 0.00 0.00 48 1015.8
20260505063522 68 0.0 0.0 0.00 0.00 0.00 50 1015.8
20260505062521 68 0.0 0.0 0.00 0.00 0.00 52 1015.8
20260505061521 67 0.0 0.0 0.00 0.00 0.00 52 1015.8
20260505060520 65 0.0 0.0 0.00 0.00 0.00 54 1015.8
20260505055522 64 0.0 0.0 0.00 0.00 0.00 56 1015.8
20260505054520 63 0.0 0.0 0.00 0.00 0.00 58 1015.7
20260505053521 63 0.0 0.0 0.00 0.00 0.00 57 1015.7
20260505052521 61 0.0 0.0 0.00 0.00 0.00 60 1015.7
20260505051521 59 0.0 0.0 0.00 0.00 0.00 61 1015.7
20260505050521 58 0.0 0.0 0.00 0.00 0.00 62 1015.7
20260505041521 59 0.0 0.0 0.00 0.00 0.00 58 1015.7
20260505040521 58 0.0 0.0 0.00 0.00 0.00 58 1015.7
20260505035523 58 0.0 0.0 0.00 0.00 0.00 58 1015.7
20260505034521 57 0.0 0.0 0.00 0.00 0.00 58 1015.6
20260505033542 56 0.0 0.0 0.00 0.00 0.00 59 1015.5
20260505032521 55 0.0 0.0 0.00 0.00 0.00 60 1015.5
20260505031521 55 0.0 0.0 0.00 0.00 0.00 60 1015.4
20260505030521 55 0.0 0.0 0.00 0.00 0.00 60 1015.4
20260505025522 55 0.0 0.0 0.00 0.00 0.00 60 1015.4
20260505024523 55 0.0 0.0 0.00 0.00 0.00 60 1015.3
20260505023520 55 0.0 0.0 0.00 0.00 0.00 60 1015.3
20260505022523 55 0.0 0.0 0.00 0.00 0.00 59 1015.4
20260505021521 56 0.0 0.0 0.00 0.00 0.00 59 1015.4
20260505020521 56 0.0 0.0 0.00 0.00 0.00 59 1015.3